Theta_e
299 300 300 300 299 299 298 298 298 297 296 295 295 294 294 294 292 290 289 288 288 288 288 288 287 285 285 285 285 285 285 286 285 284 284 284 284 284 285 286 286 286 287
299 299 299 299 299 298 298 298 297 296 296 295 295 294 293 293 291 289 289 288 288 288 287 287 285 285 285 285 285 285 285 285 284 284 284 284 284 284 285 286 288 288 288
299 299 298 298 298 298 298 298 297 296 295 295 294 294 293 293 290 289 288 288 288 288 287 285 284 284 284 285 285 285 285 285 284 284 284 285 285 286 287 288 288 289 288
299 299 298 298 298 298 298 298 297 296 295 294 294 294 293 292 289 289 288 288 288 287 286 285 283 283 283 284 284 286 286 285 285 286 286 286 287 288 289 289 290 290 289
299 298 299 298 298 298 297 297 297 295 294 294 294 293 293 291 288 289 288 288 288 287 286 285 283 283 283 283 284 287 287 287 287 287 288 287 288 289 290 290 290 290 290
298 299 299 298 298 297 297 297 296 295 294 293 293 293 292 290 288 288 287 288 287 286 286 284 283 283 283 283 284 286 288 288 288 288 288 287 288 289 290 290 289 288 288
296 297 297 297 297 296 296 296 295 294 293 293 293 293 291 288 288 288 287 288 287 286 285 284 282 282 282 282 284 286 288 288 288 287 286 285 285 286 286 288 286 284 283
295 296 296 296 296 295 296 295 294 294 293 293 292 292 290 287 288 288 287 288 287 287 285 283 281 281 282 283 285 286 288 288 286 285 284 283 283 284 285 286 285 284 283
294 295 295 295 294 294 294 294 294 293 293 292 292 292 289 287 288 288 286 287 287 287 285 283 281 281 283 283 285 285 286 287 285 285 284 283 284 283 283 285 284 282 280
294 295 294 294 294 294 293 293 293 293 293 292 292 291 289 287 288 287 286 287 287 287 286 283 282 281 283 283 284 284 284 284 284 285 284 283 282 282 282 281 282 281 280
292 293 293 293 294 293 293 293 293 292 291 291 291 291 288 286 287 287 286 287 287 287 286 284 283 282 283 282 283 283 282 282 282 282 281 281 280 279 279 279 278 279 279
292 292 292 292 292 292 292 292 291 291 290 289 288 289 288 286 286 287 287 286 287 287 286 284 282 281 281 281 281 282 281 281 281 280 280 277 277 276 275 276 276 276 276
288 290 291 291 291 291 291 289 289 289 288 287 286 286 288 287 286 287 287 286 286 286 286 284 282 281 280 280 279 278 280 281 280 279 278 276 276 276 276 276 275 274 275
286 287 288 289 289 289 289 289 288 287 287 287 286 285 287 289 286 287 287 286 285 285 284 283 282 281 280 279 279 279 279 279 279 278 278 277 277 277 276 276 275 274 273
284 286 287 288 288 288 288 289 289 290 290 288 288 288 287 286 288 287 288 287 286 285 283 282 281 280 280 279 278 278 278 279 279 279 278 277 277 276 275 275 274 273 273
281 284 286 287 287 288 288 288 288 289 290 289 290 290 290 290 291 288 287 287 285 284 282 282 281 280 280 279 278 278 278 279 278 278 278 277 277 275 275 274 274 274 273
276 280 284 286 287 287 287 287 287 288 288 288 289 289 289 291 290 289 287 286 285 283 283 282 282 282 281 280 278 278 278 278 278 278 278 276 276 276 276 274 274 274 275
274 277 282 285 286 286 286 287 287 288 288 288 288 288 288 288 289 287 286 285 285 284 283 283 283 283 282 281 279 278 278 278 278 278 277 276 276 275 275 275 275 274 274
271 276 278 282 285 286 286 286 287 288 288 288 288 288 288 288 288 287 286 285 284 282 284 283 284 284 283 282 280 279 278 278 278 278 277 276 275 276 275 275 274 274 275
271 272 275 278 281 285 286 286 287 287 287 287 286 288 288 288 288 287 286 285 284 284 284 284 283 283 283 283 281 279 278 277 277 277 277 276 275 276 275 274 274 274 273
267 269 271 275 280 283 285 286 286 287 287 287 287 287 288 288 288 287 286 284 284 284 285 285 284 283 282 283 281 280 278 278 277 277 277 276 276 275 275 275 274 274 272
265 268 270 273 278 281 282 285 286 286 286 286 286 286 286 287 287 287 286 285 284 285 285 285 285 283 283 283 282 281 280 278 277 277 277 276 276 276 275 275 274 273 272
265 268 269 273 274 276 280 283 284 285 286 285 286 285 285 286 286 285 285 285 286 286 285 284 284 284 283 282 282 282 281 281 279 278 277 277 276 276 276 275 274 272 271
264 266 268 271 273 276 278 282 284 284 285 285 285 286 285 285 286 285 284 284 285 285 286 285 284 285 284 282 281 280 280 280 280 279 278 278 277 276 276 275 274 272 270
264 266 269 270 271 273 275 278 284 284 285 285 285 286 286 285 285 286 285 284 284 284 284 285 284 284 284 283 282 280 278 278 279 278 277 278 278 277 276 275 273 271 269
264 264 265 268 270 271 273 275 276 282 286 286 286 287 287 286 286 286 286 285 285 284 284 285 284 283 285 283 281 280 278 277 278 278 277 277 277 276 275 273 272 270 269
Wind_Speed
38 40 39 38 37 32 30 28 26 22 20 18 17 15 15 14 12 10 10 11 11 12 12 12 15 18 18 18 21 21 23 22 11 38 32 33 38 38 41 40 38 34 33
35 36 37 36 35 34 33 30 27 24 21 19 17 16 16 15 12 11 11 11 11 12 12 13 19 15 17 18 20 21 23 21 21 17 35 33 34 39 39 38 39 35 31
30 31 33 35 35 36 36 32 29 26 23 21 19 19 18 15 13 12 11 11 11 11 14 17 16 15 17 19 20 22 19 19 19 22 29 32 36 37 36 35 35 34 29
30 31 33 36 38 38 37 35 31 28 25 23 21 19 18 16 14 13 11 11 11 12 15 15 16 15 17 19 21 22 19 19 20 21 24 29 30 37 28 23 24 21 15
31 32 37 38 37 38 38 36 32 29 26 24 22 21 19 18 15 13 11 10 12 14 15 15 15 15 17 16 20 22 21 21 19 19 21 24 26 28 22 21 20 19 8
33 38 38 36 36 38 37 35 33 30 28 26 24 23 21 19 16 14 11 11 13 13 15 16 15 16 16 18 18 20 20 21 19 17 15 17 23 26 24 21 15 6 3
36 36 37 36 37 38 37 36 35 32 30 28 26 25 23 20 16 14 13 13 14 12 13 14 16 16 16 17 19 20 16 15 14 14 15 17 22 27 25 18 9 6 5
35 37 37 37 37 37 37 38 35 34 32 31 28 26 24 21 18 16 14 13 14 11 12 12 14 16 15 15 21 21 15 13 14 15 16 17 21 24 21 11 8 4 8
28 35 37 38 35 36 38 39 37 35 33 31 29 27 26 22 20 17 14 14 14 10 10 11 11 13 14 16 19 19 16 13 13 13 14 14 16 16 18 13 11 6 2
31 38 37 38 38 39 38 38 38 37 35 32 29 29 26 22 20 17 14 14 13 10 8 8 7 9 13 13 17 17 19 16 16 16 13 12 13 14 13 12 10 4 3
24 26 30 35 38 38 38 37 36 34 31 30 28 28 26 23 21 19 15 16 13 11 9 8 6 7 11 12 13 15 13 11 10 9 9 11 17 20 20 18 16 11 4
19 19 25 30 32 33 35 34 33 33 30 27 25 27 28 26 23 21 18 16 13 10 8 7 7 6 9 12 11 13 10 7 5 5 8 14 17 19 19 20 19 19 19
18 16 20 25 29 32 33 31 29 30 24 20 19 20 29 28 25 22 20 16 14 12 7 6 5 7 8 10 7 10 6 4 0 5 8 10 11 10 12 16 16 20 23
24 15 13 19 21 25 26 29 26 24 20 18 18 19 23 25 25 25 23 18 15 14 9 6 6 5 7 6 6 4 1 1 3 5 6 7 7 8 11 12 11 15 21
23 21 12 13 16 20 22 25 27 31 34 26 25 25 21 23 32 29 25 22 19 14 11 8 7 5 5 4 3 1 0 2 3 4 4 8 9 9 12 12 15 18 15
20 20 17 12 13 15 17 19 23 26 30 28 26 22 21 23 21 25 25 23 18 17 13 11 10 8 8 6 6 4 3 3 2 2 4 7 9 13 14 15 15 13 16
20 20 19 14 12 13 15 14 13 21 20 24 26 23 20 18 20 19 24 23 19 18 15 15 13 12 11 10 10 9 7 6 4 4 4 7 11 15 16 16 16 14 14
24 21 16 18 11 11 15 17 17 15 16 20 24 24 23 20 19 21 23 19 20 22 23 18 16 14 14 13 12 11 11 8 7 6 6 8 11 15 15 16 17 17 14
24 20 22 19 14 12 14 19 18 18 18 15 16 19 26 22 22 23 24 30 30 27 28 22 18 17 16 14 13 12 13 11 10 9 9 10 12 13 16 16 15 15 18
18 22 25 22 17 10 13 18 17 18 19 17 16 18 21 23 22 26 28 30 32 31 29 24 21 18 18 16 15 14 15 14 14 13 12 12 13 14 16 18 18 18 16
25 25 22 25 17 13 11 19 19 17 17 15 16 21 26 25 26 27 28 31 32 35 33 27 23 22 20 18 17 17 17 16 16 15 14 14 15 17 17 17 18 18 20
21 24 23 22 18 14 13 18 21 19 16 16 17 23 24 25 24 27 28 31 36 37 34 31 26 24 22 21 21 20 19 20 19 18 17 16 17 18 20 21 21 21 24
19 22 25 20 21 17 20 17 21 18 17 16 21 20 25 25 25 24 25 31 34 36 34 30 27 25 22 20 20 19 21 22 22 21 21 21 21 21 22 24 25 26 27
20 20 25 21 19 18 16 18 22 19 17 17 24 23 23 24 24 25 27 29 29 30 31 33 30 27 24 23 21 20 18 17 19 21 22 24 25 24 24 25 26 27 29
20 19 19 20 17 16 14 16 18 16 17 22 24 22 22 25 26 24 25 27 25 29 31 31 31 29 25 24 23 23 22 21 21 22 23 23 25 26 26 26 28 28 27
21 22 22 24 20 20 16 17 18 17 19 23 24 23 22 23 23 23 22 26 26 28 31 30 33 31 26 26 24 24 24 23 23 23 24 25 28 29 28 28 30 30 28
Wind_Direction
211 214 216 219 218 218 218 219 219 218 218 218 218 217 218 221 233 255 276 294 300 313 326 309 298 308 305 300 297 285 282 278 285 294 299 303 307 305 306 302 298 288 281
213 216 218 221 217 216 218 219 219 219 221 221 218 219 219 223 235 255 273 286 298 313 319 302 309 311 306 308 291 287 287 285 278 289 299 309 309 307 300 298 300 292 278
217 219 220 220 216 216 218 217 217 218 219 217 217 219 220 225 238 255 269 280 299 316 310 308 313 311 306 306 293 297 293 293 282 289 297 305 305 309 306 303 299 299 292
218 219 221 221 219 219 219 217 216 217 216 215 218 220 221 227 239 249 263 279 300 302 317 316 317 310 300 302 302 297 298 299 299 297 294 300 306 313 308 307 321 334 350
219 220 225 225 223 222 219 216 215 215 216 217 216 217 221 228 237 246 261 275 292 302 314 318 318 314 301 298 295 303 298 296 296 300 307 309 315 321 318 318 315 321 324
222 224 226 225 222 221 218 213 213 213 213 213 214 217 220 227 236 246 256 263 280 300 311 318 322 320 310 308 302 302 302 294 307 311 321 313 316 319 317 310 316 327 337
227 225 224 223 219 218 214 212 211 210 210 211 214 216 221 227 234 244 248 251 272 297 308 315 319 325 315 316 316 309 311 310 310 312 316 319 318 328 324 316 354 22 8
222 225 224 219 215 214 209 212 210 210 210 212 214 216 221 225 230 239 242 247 266 292 307 315 315 325 327 319 314 312 316 315 332 330 314 319 326 336 339 338 353 11 31
224 226 224 218 207 206 204 207 209 208 210 214 215 216 220 223 228 234 233 242 260 286 304 314 309 319 325 316 311 306 307 314 328 335 326 326 336 344 355 334 343 16 355
236 233 227 217 208 204 204 203 207 208 211 215 215 219 223 225 227 229 234 245 258 284 302 310 307 316 318 314 313 305 308 321 333 338 341 352 11 15 18 24 6 355 332
271 251 227 218 210 208 205 205 206 204 208 216 218 220 223 226 226 230 233 247 264 279 298 319 316 327 316 311 312 304 304 312 325 345 356 23 39 39 37 36 41 33 27
290 252 225 218 207 203 201 201 201 201 204 210 217 223 225 226 226 228 236 240 255 261 288 305 317 335 320 310 308 308 301 303 325 19 33 37 42 45 46 50 52 61 65
319 261 232 218 208 204 195 191 188 196 193 198 206 221 228 225 226 226 232 240 240 253 272 294 298 316 317 318 307 317 305 287 327 71 63 49 51 59 67 63 64 64 69
343 317 256 219 204 203 197 193 184 185 190 197 203 216 228 224 223 222 226 234 234 238 249 265 277 305 308 311 300 314 8 95 120 109 96 83 79 72 69 70 62 57 60
346 341 296 242 217 204 203 200 199 207 206 201 210 215 211 220 225 224 225 227 231 230 231 230 241 255 265 263 260 247 95 128 141 132 125 101 85 73 67 74 75 77 81
346 342 324 276 243 224 215 219 222 225 223 222 232 234 235 241 240 232 229 229 225 214 210 217 220 218 222 210 218 190 176 173 162 164 146 115 103 96 90 89 88 82 89
341 328 323 292 259 239 230 220 223 229 229 231 233 237 238 236 237 229 223 220 211 198 220 220 217 212 213 210 209 212 202 199 204 205 173 126 125 123 120 106 101 93 95
320 310 314 300 266 248 242 235 228 220 214 220 223 228 229 227 229 217 207 195 195 212 227 226 219 216 212 208 204 215 201 199 207 207 171 160 153 133 125 122 120 112 94
316 322 319 312 312 282 252 244 234 232 232 221 209 225 223 220 217 213 199 204 204 211 222 229 226 212 212 206 198 205 211 203 210 199 178 170 164 155 140 137 129 121 120
321 317 311 306 307 292 257 244 234 233 238 224 209 214 205 199 198 202 205 213 219 225 226 227 226 214 205 202 199 199 209 206 206 204 186 178 169 167 153 147 145 137 121
315 306 306 300 286 279 263 254 241 225 232 235 228 219 214 198 203 207 209 214 217 223 228 226 223 216 203 198 199 201 208 209 205 207 194 183 175 163 160 156 151 144 137
298 291 290 290 293 293 266 256 245 232 219 236 236 226 218 212 211 214 214 215 220 225 228 229 225 219 207 203 201 200 200 205 202 201 192 186 173 168 162 158 156 151 146
292 286 284 279 289 288 286 267 252 239 229 222 234 220 211 216 219 221 221 222 228 229 228 228 225 222 209 206 207 207 203 201 200 194 186 181 175 171 168 161 159 155 155
283 281 280 281 278 272 268 270 249 236 227 225 230 221 211 211 217 223 224 227 230 231 229 225 223 220 207 202 202 203 202 201 198 196 194 183 178 175 171 165 165 162 157
278 276 282 287 287 290 296 300 266 244 235 229 229 222 215 214 217 221 224 232 234 232 228 221 217 213 206 203 200 197 193 193 191 192 194 190 180 174 174 169 165 164 162
274 273 271 271 274 272 272 281 285 290 232 228 223 220 213 211 217 222 220 223 226 227 226 219 212 207 204 199 197 196 195 191 186 187 189 188 181 176 175 171 168 167 167